Waarnemingen

Advertentie
Mijn weer
Jersey Airport, Groot Brittannië (3895): temperatuur & dauwpunt: 20.09.2018 16:00:00 - 26.09.2018 16:00:00 (BST)Jersey Airport, Groot Brittannië (3895): temperatuur -20cm & temperatuur -100cm: 20.09.2018 16:00:00 - 26.09.2018 16:00:00 (BST)Jersey Airport, Groot Brittannië (3895): windsnelheid & windstoten: 20.09.2018 16:00:00 - 26.09.2018 16:00:00 (BST)Jersey Airport, Groot Brittannië (3895): windrichting: 20.09.2018 16:00:00 - 26.09.2018 16:00:00 (BST)Jersey Airport, Groot Brittannië (3895): luchtdruk: 20.09.2018 16:00:00 - 26.09.2018 16:00:00 (BST)Jersey Airport, Groot Brittannië (3895): zicht: 20.09.2018 16:00:00 - 26.09.2018 16:00:00 (BST)Jersey Airport, Groot Brittannië (3895): Zonneschijnduur: 20.09.2018 16:00:00 - 26.09.2018 16:00:00 (BST)Jersey Airport, Groot Brittannië (3895): neerslag: 20.09.2018 16:00:00 - 26.09.2018 16:00:00 (BST)
Datum & Tijd tt [°C] td [°C] tt -20cm [°C] tt -100cm [°C] ff [km/u] ff [kn] fx [km/u] fx [kn] dd ppp [hPa] vv [km] sd [min] rr [mm]
26.09.2018 16:00:00 18,8 5,3 - - 16 9 - - ONO 1031,4 10 60 -
26.09.2018 15:00:00 18,8 5,8 - - 16 9 - - ONO 1031,7 10 60 0,0
26.09.2018 14:00:00 18,1 4,9 - - 16 9 - - O 1032,2 10 60 0,0
26.09.2018 13:00:00 17,9 4,6 - - 18 10 - - O 1032,8 10 60 0,0
26.09.2018 12:00:00 17,4 5,6 - - 18 10 - - O 1033,1 10 60 0,0
26.09.2018 11:00:00 16,5 5,7 - - 16 9 - - O 1033,3 10 60 0,0
26.09.2018 10:00:00 15,5 8,4 15,9 16,7 13 7 - - O 1033,2 10 60 0,0
26.09.2018 09:00:00 14,0 10,1 - - 13 7 - - O 1032,9 10 60 0,0
26.09.2018 08:00:00 10,6 8,5 - - 9 5 - - O 1033,1 10 36 0,0
26.09.2018 07:00:00 10,7 7,9 - - 13 7 - - O 1032,8 10 0 0,0
26.09.2018 06:00:00 10,3 7,2 - - 13 7 - - O 1032,7 10 0 0,0
26.09.2018 05:00:00 10,7 6,9 - - 11 6 - - O 1033,0 10 0 0,0
26.09.2018 04:00:00 10,0 6,4 - - 13 7 - - O 1033,2 10 0 0,0
26.09.2018 03:00:00 8,6 5,8 - - 16 9 - - OZO 1033,5 10 0 0,0
26.09.2018 02:00:00 9,1 5,7 - - 15 8 - - O 1034,1 10 0 0,0
26.09.2018 01:00:00 8,3 5,9 - - 18 10 - - OZO 1034,4 10 - 0,0
26.09.2018 00:00:00 10,0 6,9 - - 18 10 - - O 1034,5 10 0 0,0
25.09.2018 23:00:00 11,6 8,3 - - 18 10 - - O 1034,5 10 0 0,0
25.09.2018 22:00:00 11,9 7,6 - - 15 8 - - ONO 1034,6 10 0 0,0
25.09.2018 21:00:00 12,1 6,8 - - 15 8 - - ONO 1034,8 10 0 0,0
25.09.2018 20:00:00 12,1 6,9 - - 15 8 - - ONO 1034,6 10 0 0,0
25.09.2018 19:00:00 13,4 6,0 - - 13 7 - - ONO 1034,5 10 48 0,0
25.09.2018 18:00:00 15,1 5,8 - - 15 8 - - ONO 1034,5 10 60 0,0
25.09.2018 17:00:00 15,8 5,5 - - 15 8 - - ONO 1034,7 10 60 0,0
25.09.2018 16:00:00 15,9 4,2 - - 16 9 - - O 1035,3 10 60 0,0
25.09.2018 15:00:00 15,7 5,0 - - 15 8 - - ONO 1035,9 10 60 0,0
25.09.2018 14:00:00 15,5 5,7 - - 15 8 - - OZO 1036,6 10 60 0,0
25.09.2018 13:00:00 15,3 4,2 - - 13 7 - - OZO 1037,1 10 60 0,0
25.09.2018 12:00:00 15,1 6,8 - - 16 9 - - ZO 1037,4 10 60 0,0
25.09.2018 11:00:00 14,1 8,3 - - 18 10 - - ZO 1037,7 45 60 0,0
25.09.2018 10:00:00 13,6 8,0 16,2 16,9 21 11 - - OZO 1037,7 10 60 0,0
25.09.2018 09:00:00 12,4 8,2 - - 16 9 - - OZO 1037,7 10 60 0,0
25.09.2018 08:00:00 9,5 7,2 - - 18 10 - - O 1037,5 10 36 0,0
25.09.2018 07:00:00 7,0 4,5 - - 16 9 - - O 1037,1 50 0 0,0
25.09.2018 06:00:00 7,8 5,5 - - 13 7 - - O 1037,1 10 0 0,0
25.09.2018 05:00:00 8,1 5,7 - - 13 7 - - O 1037,2 10 0 0,0
25.09.2018 04:00:00 9,3 5,5 - - 15 8 - - O 1037,3 10 0 0,0
25.09.2018 03:00:00 9,7 6,0 - - 13 7 - - O 1037,5 10 0 0,0
25.09.2018 02:00:00 9,5 5,8 - - 13 7 - - O 1037,8 10 0 0,0
25.09.2018 01:00:00 9,3 5,7 - - 15 8 - - O 1037,9 10 - 0,0
25.09.2018 00:00:00 9,5 5,7 - - 11 6 - - O 1038,2 10 0 0,0
24.09.2018 23:00:00 10,4 5,9 - - 11 6 - - ONO 1038,3 10 0 0,0
24.09.2018 22:00:00 10,7 5,7 - - 11 6 - - ONO 1038,2 10 0 0,0
24.09.2018 21:00:00 11,4 5,5 - - 13 7 - - NO 1038,2 10 0 0,0
24.09.2018 20:00:00 12,0 5,8 - - 15 8 - - NO 1037,7 10 0 0,0
24.09.2018 19:00:00 12,8 6,0 - - 18 10 - - NNO 1037,3 10 48 0,0
24.09.2018 18:00:00 13,9 6,1 - - 18 10 - - NNO 1037,2 10 60 0,0
24.09.2018 17:00:00 14,4 6,6 - - 22 12 - - NNO 1037,1 10 60 0,0
24.09.2018 16:00:00 14,7 6,7 - - 24 13 - - NNO 1037,6 10 60 0,0
24.09.2018 15:00:00 14,8 7,3 - - 22 12 - - N 1037,9 10 60 0,0
24.09.2018 14:00:00 15,2 7,7 - - 21 11 - - NNO 1038,2 10 48 0,0
24.09.2018 13:00:00 14,4 6,6 - - 15 8 - - NNO 1038,5 10 54 0,0
24.09.2018 12:00:00 15,1 6,9 - - 21 11 - - NNO 1038,4 10 54 0,0
24.09.2018 11:00:00 14,1 6,5 - - 16 9 - - NNO 1038,3 10 54 0,0
24.09.2018 10:00:00 14,1 7,6 16,9 17,0 15 8 - - NO 1038,1 10 60 0,0
24.09.2018 09:00:00 13,6 7,1 - - 13 7 - - NO 1037,0 10 60 0,0
24.09.2018 08:00:00 12,0 6,8 - - 11 6 - - NNO 1036,5 10 30 0,0
24.09.2018 07:00:00 10,9 6,7 - - 11 6 - - NNO 1036,0 45 0 0,0
24.09.2018 06:00:00 11,0 6,2 - - 9 5 - - NNO 1035,7 10 0 0,0
24.09.2018 05:00:00 11,3 6,2 - - 9 5 - - NNO 1035,3 10 0 0,0
24.09.2018 04:00:00 11,4 6,2 - - 11 6 - - NNO 1034,8 10 0 0,0
24.09.2018 03:00:00 11,6 6,0 - - 13 7 - - NNO 1034,4 10 0 0,0
24.09.2018 02:00:00 12,1 6,0 - - 15 8 - - NNO 1033,8 10 0 0,0
24.09.2018 01:00:00 12,1 5,8 - - 18 10 - - N 1033,2 10 - 0,0
24.09.2018 00:00:00 12,7 5,7 - - 18 10 - - NNO 1032,4 10 0 0,0
23.09.2018 23:00:00 13,2 6,1 - - 15 8 - - NNO 1031,3 10 0 0,0
23.09.2018 22:00:00 13,0 6,6 - - 16 9 - - N 1030,4 10 0 0,0
23.09.2018 21:00:00 13,0 5,7 - - 16 9 - - NNW 1029,4 10 0 0,0
23.09.2018 20:00:00 12,9 5,1 - - 18 10 - - NNW 1028,2 10 0 0,0
23.09.2018 19:00:00 12,7 6,6 - - 16 9 - - N 1027,3 10 6 0,0
23.09.2018 18:00:00 13,0 5,9 - - 21 11 48 26 N 1025,9 10 30 0,0
23.09.2018 17:00:00 13,4 7,8 - - 26 14 54 29 N 1024,8 10 36 0,2
23.09.2018 16:00:00 12,9 8,0 - - 26 14 50 27 N 1023,7 10 42 0,0
23.09.2018 15:00:00 12,6 10,0 - - 31 17 54 29 N 1022,5 10 0 0,0
23.09.2018 14:00:00 13,0 10,4 - - 29 16 59 32 N 1020,7 10 0 0,0
23.09.2018 13:00:00 12,3 11,1 - - 29 16 59 32 N 1019,1 10 0 0,0
23.09.2018 12:00:00 13,3 12,8 - - 22 12 - - N 1017,5 10 0 1,4
23.09.2018 11:00:00 13,5 13,5 - - 24 13 52 28 N 1015,2 9 0 0,4
23.09.2018 10:00:00 15,2 15,1 17,5 17,2 41 22 63 34 W 1013,9 4,0 0 1,2
23.09.2018 09:00:00 17,4 17,4 - - 44 24 59 32 WZW 1012,7 0,8 0 0,6
23.09.2018 08:00:00 17,4 17,4 - - 39 21 50 27 WZW 1012,3 1,5 0 0,4
23.09.2018 07:00:00 17,4 17,4 - - 39 21 52 28 WZW 1013,0 0,4 0 0,8
23.09.2018 06:00:00 17,3 17,3 - - 39 21 52 28 WZW 1013,3 0,4 0 0,2
23.09.2018 05:00:00 17,4 17,4 - - 37 20 48 26 W 1013,3 0,3 0 0,4
23.09.2018 04:00:00 17,5 17,4 - - 39 21 54 29 WZW 1013,6 0,3 0 0,4
23.09.2018 03:00:00 17,5 17,5 - - 41 22 55 30 W 1014,0 0,5 0 0,4
23.09.2018 02:00:00 17,6 17,6 - - 41 22 54 29 WZW 1013,9 8 0 0,2
23.09.2018 01:00:00 17,9 17,9 - - 39 21 46 25 WZW 1013,9 0,6 - 1,6
23.09.2018 00:00:00 18,0 18,0 - - 37 20 50 27 WZW 1013,8 2,2 0 0,8
22.09.2018 23:00:00 18,0 18,0 - - 41 22 55 30 WZW 1013,8 0,4 0 0,0
22.09.2018 22:00:00 18,0 18,0 - - 39 21 54 29 WZW 1013,7 1,9 0 0,4
22.09.2018 21:00:00 18,1 18,1 - - 44 24 61 33 WZW 1013,3 5 0 0,2
22.09.2018 20:00:00 18,1 18,0 - - 48 26 55 30 WZW 1012,9 2,0 0 0,8
22.09.2018 19:00:00 18,2 18,1 - - 46 25 59 32 WZW 1012,4 0,9 0 0,8
22.09.2018 18:00:00 18,1 18,0 - - 35 19 57 31 ZW 1012,1 1,2 0 2,2
22.09.2018 17:00:00 17,3 17,1 - - 37 20 59 32 ZZW 1012,1 1,8 0 1,6
22.09.2018 16:00:00 16,5 16,4 - - 31 17 48 26 ZZW 1012,9 2,0 0 4,4
22.09.2018 15:00:00 14,9 14,5 - - 37 20 54 29 Z 1014,4 2,5 0 4,0
22.09.2018 14:00:00 13,5 12,7 - - 37 20 55 30 ZZO 1015,4 6 0 1,8
22.09.2018 13:00:00 12,6 11,2 - - 28 15 - - ZZO 1017,2 6 0 1,0
22.09.2018 12:00:00 12,7 10,2 - - 26 14 - - Z 1019,0 10 0 0,8
22.09.2018 11:00:00 12,6 11,3 - - 26 14 - - Z 1020,9 6 0 1,0
22.09.2018 10:00:00 14,6 10,1 17,5 17,2 18 10 - - Z 1020,6 10 0 0,0
22.09.2018 09:00:00 14,2 10,3 - - 11 6 - - ZZW 1020,9 10 0 0,0
22.09.2018 08:00:00 13,4 9,9 - - 9 5 - - ZW 1021,2 10 0 0,2
22.09.2018 07:00:00 12,9 9,8 - - 13 7 - - ZW 1021,4 10 0 0,0
22.09.2018 06:00:00 13,4 9,9 - - 16 9 - - WZW 1021,4 10 0 0,0
22.09.2018 05:00:00 13,1 11,1 - - 18 10 - - WZW 1021,7 10 0 0,4
22.09.2018 04:00:00 14,3 8,5 - - 18 10 - - W 1022,1 10 0 0,0
22.09.2018 03:00:00 14,3 7,7 - - 18 10 - - W 1022,2 10 0 0,0
22.09.2018 02:00:00 14,3 7,4 - - 22 12 - - W 1022,2 10 0 0,0
22.09.2018 01:00:00 14,3 7,8 - - 22 12 - - W 1022,1 10 - 0,0
22.09.2018 00:00:00 14,2 8,8 - - 21 11 - - W 1022,3 10 0 0,0
21.09.2018 23:00:00 14,2 8,5 - - 26 14 - - W 1022,4 10 0 0,0
21.09.2018 22:00:00 14,2 8,6 - - 24 13 - - W 1021,9 10 0 0,0
21.09.2018 21:00:00 14,3 8,4 - - 26 14 46 25 W 1021,5 10 0 0,0
21.09.2018 20:00:00 14,4 8,3 - - 34 18 50 27 W 1020,9 10 0 0,0
21.09.2018 19:00:00 14,6 7,8 - - 34 18 50 27 W 1020,3 10 6 0,0
21.09.2018 18:00:00 15,4 7,8 - - 37 20 54 29 W 1019,8 10 42 0,0
21.09.2018 17:00:00 15,4 7,7 - - 37 20 55 30 W 1019,5 10 48 0,0
21.09.2018 16:00:00 16,1 7,6 - - 39 21 55 30 W 1018,9 10 48 0,0
21.09.2018 15:00:00 15,7 7,5 - - 41 22 59 32 W 1018,4 10 54 0,0
21.09.2018 14:00:00 15,5 6,4 - - 39 21 59 32 W 1017,7 10 48 0,0
21.09.2018 13:00:00 16,7 7,8 - - 39 21 55 30 W 1017,2 10 60 0,0
21.09.2018 12:00:00 16,1 7,1 - - 39 21 55 30 W 1016,2 10 54 0,0
21.09.2018 11:00:00 15,1 7,1 - - 35 19 52 28 W 1015,5 10 36 0,0
21.09.2018 10:00:00 14,3 7,0 18,0 17,2 29 16 52 28 WNW 1014,8 10 30 0,0
21.09.2018 09:00:00 13,6 6,8 - - 31 17 54 29 WNW 1013,8 10 24 0,0
21.09.2018 08:00:00 13,1 7,8 - - 31 17 55 30 WNW 1012,6 10 0 0,0
21.09.2018 07:00:00 13,1 7,8 - - 37 20 63 34 WNW 1011,3 10 0 0,0
21.09.2018 06:00:00 13,7 8,8 - - 37 20 67 36 WNW 1009,7 10 0 0,0
21.09.2018 05:00:00 14,0 9,5 - - 37 20 76 41 W 1008,5 10 0 0,0
21.09.2018 04:00:00 14,6 10,0 - - 50 27 78 42 W 1007,4 10 0 0,0
21.09.2018 03:00:00 15,1 11,8 - - 48 26 72 39 W 1006,6 10 0 0,0
21.09.2018 02:00:00 15,2 13,4 - - 41 22 78 42 W 1005,7 10 0 1,8
21.09.2018 01:00:00 17,6 16,4 - - 42 23 65 35 ZZW 1004,0 2,3 - 1,8
21.09.2018 00:00:00 17,9 16,3 - - 37 20 63 34 Z 1005,3 7 0 0,6
20.09.2018 23:00:00 18,6 16,3 - - 39 21 55 30 ZZW 1007,1 10 0 0,0
20.09.2018 22:00:00 18,5 16,2 - - 37 20 55 30 ZZW 1007,9 10 0 0,0
20.09.2018 21:00:00 18,9 16,0 - - 34 18 52 28 Z 1008,7 10 0 0,0
20.09.2018 20:00:00 19,1 15,7 - - 31 17 52 28 ZZW 1009,3 10 0 0,0
20.09.2018 19:00:00 19,6 14,9 - - 35 19 59 32 ZZW 1009,7 10 0 0,0
20.09.2018 18:00:00 20,0 14,6 - - 28 15 46 25 Z 1010,4 10 0 0,0
20.09.2018 17:00:00 20,4 14,7 - - 29 16 48 26 ZZW 1011,7 10 0 0,0
20.09.2018 16:00:00 20,7 15,6 - - 29 16 50 27 ZZW 1012,1 10 0 0,0

tt = temperatuur
td = dauwpunt
tt -20cm = temperatuur -20cm
tt -100cm = temperatuur -100cm
ff = windsnelheid
fx = windstoten
dd = windrichting
ppp = luchtdruk
vv = zicht
sd = Zonneschijnduur
rr = neerslag

Weerstations in de omgeving